FW3057 Weather Reports


Display with metric or nautical units.
time (UTC)temp
F
wind
direction
speed
MPH
gust
MPH
rain 1hr
in
rain 24hr
in
rain mn
in
humidity
%
barometer
mb
20260504232310 54 1 1.0 4.0 0.04 0.05 0.05 93 1013.5
20260504231310 54 302 1.0 2.0 0.04 0.04 0.04 93 1013.5
20260504224310 55 331 2.0 5.0 0.02 0.02 0.02 92 1013.4
20260504223310 55 11 3.0 6.0 0.01 0.01 0.01 92 1013.5
20260504221309 55 300 2.0 3.0 0.00 0.00 0.00 91 1013.5
20260504220310 55 327 1.0 2.0 0.00 0.00 0.00 91 1013.6
20260504215310 55 306 2.0 3.0 0.00 0.00 0.00 91 1013.6
20260504214309 55 1 2.0 3.0 0.00 0.00 0.00 91 1013.6
20260504213309 55 1 1.0 4.0 0.00 0.00 0.00 91 1013.7
20260504210309 55 331 4.0 6.0 0.00 0.00 0.00 91 1013.9
20260504205309 55 330 2.0 5.0 0.00 0.00 0.00 91 1013.9
20260504204309 55 331 2.0 4.0 0.00 0.00 0.00 91 1013.9
20260504203310 55 322 2.0 3.0 0.00 0.00 0.00 91 1013.9
20260504201310 56 309 3.0 5.0 0.00 0.00 0.00 90 1013.8
20260504195309 56 327 3.0 7.0 0.00 0.00 0.00 90 1013.5
20260504192309 56 328 3.0 5.0 0.00 0.00 0.00 90 1013.6
20260504191309 56 276 2.0 4.0 0.00 0.00 0.00 89 1013.4
20260504190309 56 307 3.0 5.0 0.00 0.00 0.00 89 1013.2
20260504185309 56 1 2.0 5.0 0.00 0.00 0.00 89 1013.2
20260504184309 56 324 2.0 5.0 0.00 0.00 0.00 89 1013.2
20260504183309 56 1 1.0 5.0 0.00 0.00 0.00 89 1013.2
20260504182309 56 347 1.0 4.0 0.00 0.00 0.00 89 1013.4
20260504181309 56 11 2.0 5.0 0.00 0.00 0.00 89 1013.3
20260504180309 56 347 2.0 4.0 0.00 0.00 0.00 89 1013.2
20260504175309 56 68 3.0 5.0 0.00 0.00 0.00 89 1013.1
20260504174309 56 72 4.0 6.0 0.00 0.00 0.00 89 1013.2
20260504172309 56 100 4.0 7.0 0.00 0.00 0.00 89 1013.1
20260504171309 56 63 4.0 7.0 0.00 0.00 0.00 88 1013.0
20260504170309 56 51 3.0 8.0 0.00 0.00 0.00 88 1013.0
20260504160309 58 25 2.0 5.0 0.00 0.00 0.00 87 1013.2
20260504150309 59 72 4.0 10.0 0.00 0.00 0.00 86 1013.1
20260504141309 59 27 6.0 10.0 0.00 0.00 0.00 85 1013.4
20260504140310 59 98 4.0 7.0 0.00 0.00 0.00 85 1013.6
20260504130310 59 93 5.0 11.0 0.00 0.00 0.00 85 1013.7
20260504120310 58 53 5.0 10.0 0.00 0.00 0.00 87 1013.7
20260504110309 59 81 5.0 10.0 0.00 0.00 0.00 88 1014.2
20260504081309 56 56 3.0 5.0 0.00 0.00 0.00 93 1013.7
20260504080309 56 59 3.0 5.0 0.00 0.00 0.00 95 1013.5
20260504070309 53 331 1.0 2.0 0.00 0.00 0.00 97 1013.0
20260504050309 47 178 0.0 2.0 0.00 0.00 0.00 96 1012.1
20260504044310 48 168 1.0 3.0 0.00 0.00 0.00 96 1011.9
20260504043310 48 190 2.0 3.0 0.00 0.00 0.00 96 1012.0
20260504042310 48 178 2.0 2.0 0.00 0.00 0.00 96 1011.8
20260504040310 49 206 1.0 2.0 0.00 0.00 0.00 96 1012.1
20260504035310 49 193 1.0 2.0 0.00 0.00 0.00 96 1012.2
20260504034310 49 269 2.0 3.0 0.00 0.00 0.00 96 1012.0
20260504033311 49 269 1.0 2.0 0.00 0.00 0.00 96 1012.0
20260504032309 49 223 1.0 2.0 0.00 0.00 0.00 96 1012.2
20260504031310 49 223 1.0 2.0 0.00 0.00 0.00 96 1012.1
20260504030310 49 218 1.0 3.0 0.00 0.00 0.00 95 1012.2
20260504025309 49 223 1.0 3.0 0.00 0.00 0.00 95 1012.2
20260504024309 49 193 1.0 3.0 0.00 0.00 0.00 95 1012.2
20260504023309 49 161 1.0 2.0 0.00 0.00 0.00 95 1012.2
20260504022310 49 240 1.0 2.0 0.00 0.00 0.00 95 1012.2
20260504021309 49 195 1.0 3.0 0.00 0.00 0.00 95 1012.1
20260504020309 50 170 1.0 2.0 0.00 0.00 0.00 95 1012.2
20260504015309 50 178 1.0 2.0 0.00 0.00 0.00 95 1012.2
20260504014309 50 178 1.0 2.0 0.00 0.00 0.00 95 1012.2
20260504013309 50 250 1.0 2.0 0.00 0.00 0.00 95 1012.3
20260504012309 50 253 2.0 3.0 0.00 0.00 0.00 95 1012.2
20260504010309 50 269 2.0 3.0 0.00 0.00 0.00 94 1012.2
20260504005310 51 46 0.0 2.0 0.00 0.00 0.00 94 1012.2
20260504004309 51 283 1.0 2.0 0.00 0.00 0.00 94 1012.3
20260504003309 51 295 0.0 2.0 0.00 0.00 0.00 94 1012.3
20260504002309 51 302 1.0 1.0 0.00 0.00 0.00 94 1012.3
20260504001309 51 152 1.0 2.0 0.00 0.00 0.00 94 1012.3
20260504000309 52 206 1.0 2.0 0.00 0.00 0.00 94 1012.4
20260503235309 52 178 1.0 2.0 0.00 0.00 0.00 94 1012.4